THORAD AGENA D DEB, 4737

Orbit data source: Space-Track

THORAD AGENA D DEB, 4737 is space debris in SSO originally from a launch on Wed, 08 Apr 1970 UTC launched from the Air Force Western Test Range (AFWTR). Debris objects in space refer to the collection of defunct objects orbiting the Earth. Examples of debris include non-operational satellites, rocket bodies, and fragments generated from explosions, collisions, or faulty payload assembly.

Loading next visibility...
Identifier
4737, 1970-025CL
Orbit
SSO
Country
Flag of USUS
Related business
Manufacturer
Unknown
Mission
Spacecraft
Bus & Motor
Unknown
Mass
Unknown
Launch date (UTC)
1970-04-08 (56 years ago)
Launch vehicle
Unknown
Launch site
Air Force Western Test Range (AFWTR)
Object type
Payload
Rocket body
Debris
Shape & HBR
Unknown shape, 0.2 m
Radar Cross Section
Medium (>0.1 m² and <1 m²)

Expand to show TLE details & history
Last TLE update: 12 hours ago

TLE from 12 hours ago
0 THORAD AGENA D DEB
1 04737U 70025CL  26255.88473831  .00002106  00000-0  78197-3 0  9991
2 04737  99.0573 250.0527 0023398 184.5213 175.5762 14.33159726860161
Epoch: 2026-09-12T21:14Z
TLE epoch observation values (Epoch: 2026-09-12T21:14:01.389Z)
Latitude
-0.00003°
Longitude
-60.34041°
Altitude
800.815 km
Speed
7.444 km/s
True Right ascension
16h 40m 12s
True Declination
0° 00' 00"
Sunlit
Object was in daylight at epoch
Visualization orbit readout
Latitude
Unknown
Longitude
Unknown
Altitude
Unknown
Speed
Unknown
Apparent Right ascension
Unknown
Apparent Declination
Unknown
Sunlit
N/A
Visualization observer readout
Local Sidereal Time
02:09:10
Azimuth
Unknown
Elevation
Unknown
Doppler factor
Unknown
Orbital elements
Apogee altitude
795.091 km
Perigee altitude
761.602 km
Semi-major axis
7,156.484 km
Eccentricity
0.00234
Inclination
99.0573°
RAAN
250.0527°
Arg. of periapsis
184.5213°
True anomaly
175.59682°
Mean anomaly
175.5762°
Eccentric anomaly
175.58652°
Mean motion
3.58504 °/min
Orbital period
100.42 mins
BSTAR
0.00078197
Loading maneuver chart data...
Computing Atmospheric mass density...

Documentation

Showing up to 5 results
|